User: anonymous   Login
Location: Casco Volunteer Fire Department
(44.5576°N, 87.6146°W)
Time: 14:42:43
(UTC+00:00)
Language:

Landsat 7 - Orbit

View from above orbital plane
View from above orbital plane
View from above satellite
View from above satellite

Ground track
Ground track

The orbit is defined by the following mean orbital elements,

1 25682U          26075.27424001 +.00000000 +00000-0 +10782-3 0 00007
2 25682  97.8607  83.1661 0001626  79.2356 292.2897 14.63829767    06
Epoch (UTC): 16 March 2026 06:34:54
Eccentricity: 0.0001626
inclination: 97.8607°
perigee height: 680 km
apogee height: 682 km
right ascension of ascending node: 83.1661°
argument of perigee: 79.2356°
revolutions per day: 14.63829767
mean anomaly at epoch: 292.2897°

The dashed part of the orbit path shows where the satellite is in the earth's shadow,  

DLR